Location: Newark
(52.0178°N, 4.7453°W)
Time: 00:09:54
(UTC+00:00)

Envisat - Pass Details

Date: 29 March 2019
Orbit: 764 x 766 km, 98.2° (Epoch: 23 April)

Event Time Altitude Azimuth Distance (km) Brightness Sun altitude
Rises 19:19:26 0° 184° (S) 3,222 6.1 -5.7°
Reaches altitude 10° 19:21:50 10° 191° (S) 2,300 5.5 -6.1°
Maximum altitude 19:26:39 43° 262° (W) 1,074 4.4 -6.8°
Drops below altitude 10° 19:31:31 10° 334° (NNW) 2,316 6.1 -7.5°
Sets 19:33:57 0° 341° (NNW) 3,247 6.8 -7.9°
